GW0175 Weather Reports


time (UTC)temp
F
wind
direction
speed
knots
gust
knots
rain 1hr
in
rain 24hr
in
rain mn
in
humidity
%
barometer
mb
20260506233355 82 261 1.7 10.4 0.00 0.00 0.00 13 1008.4
20260506232852 81 253 5.2 13.0 0.00 0.00 0.00 13 1008.6
20260506232348 82 263 7.8 14.8 0.00 0.00 0.00 13 1008.3
20260506231844 82 257 5.2 9.6 0.00 0.00 0.00 14 1008.0
20260506231342 81 239 5.2 20.0 0.00 0.00 0.00 14 1008.4
20260506230839 82 250 2.6 12.2 0.00 0.00 0.00 13 1008.3
20260506230336 82 294 4.3 13.0 0.00 0.00 0.00 13 1008.2
20260506225832 82 238 3.5 14.8 0.00 0.00 0.00 13 1008.2
20260506225330 82 235 4.3 9.6 0.00 0.00 0.00 13 1008.0
20260506224827 82 262 9.6 17.4 0.00 0.00 0.00 13 1007.9
20260506224324 83 257 4.3 8.7 0.00 0.00 0.00 14 1008.2
20260506223820 82 251 11.3 12.2 0.00 0.00 0.00 14 1008.0
20260506223315 82 265 5.2 8.7 0.00 0.00 0.00 14 1008.0
20260506222813 82 254 6.1 11.3 0.00 0.00 0.00 14 1008.0
20260506222308 81 268 4.3 14.8 0.00 0.00 0.00 14 1008.2
20260506221806 82 238 6.1 19.1 0.00 0.00 0.00 14 1007.9
20260506221303 81 238 6.1 13.9 0.00 0.00 0.00 14 1008.3
20260506220801 82 266 5.2 12.2 0.00 0.00 0.00 14 1008.3
20260506220255 81 245 4.3 13.0 0.00 0.00 0.00 14 1008.0
20260506215753 81 265 4.3 14.8 0.00 0.00 0.00 14 1008.3
20260506215248 82 236 7.8 20.9 0.00 0.00 0.00 14 1008.2
20260506214745 82 229 4.3 10.4 0.00 0.00 0.00 14 1008.2
20260506214242 80 248 7.0 14.8 0.00 0.00 0.00 15 1008.2
20260506213740 82 241 13.0 20.0 0.00 0.00 0.00 15 1008.3
20260506213232 80 255 9.6 22.6 0.00 0.00 0.00 14 1008.2
20260506212729 81 213 5.2 12.2 0.00 0.00 0.00 15 1008.2
20260506212224 81 260 5.2 13.9 0.00 0.00 0.00 14 1008.5
20260506211719 82 279 4.3 14.8 0.00 0.00 0.00 15 1008.5
20260506211216 82 311 2.6 9.6 0.00 0.00 0.00 16 1008.6
20260506210713 81 240 6.1 11.3 0.00 0.00 0.00 15 1008.7
20260506210210 81 255 7.8 16.5 0.00 0.00 0.00 16 1008.7
20260506205707 80 254 4.3 12.2 0.00 0.00 0.00 15 1008.6
20260506205202 82 264 8.7 11.3 0.00 0.00 0.00 15 1008.8
20260506204700 82 270 3.5 11.3 0.00 0.00 0.00 16 1008.9
20260506204156 80 268 7.0 15.6 0.00 0.00 0.00 17 1008.7
20260506203655 80 229 4.3 10.4 0.00 0.00 0.00 17 1008.7
20260506203152 81 273 11.3 11.3 0.00 0.00 0.00 16 1008.9
20260506202650 81 274 4.3 11.3 0.00 0.00 0.00 16 1008.9
20260506202145 81 239 4.3 9.6 0.00 0.00 0.00 17 1009.0
20260506201642 80 257 10.4 12.2 0.00 0.00 0.00 16 1008.8
20260506201139 81 268 6.1 13.0 0.00 0.00 0.00 17 1008.8
20260506200636 80 24 1.7 12.2 0.00 0.00 0.00 17 1009.0
20260506200132 80 303 4.3 13.9 0.00 0.00 0.00 17 1008.9
20260506195629 80 274 4.3 12.2 0.00 0.00 0.00 16 1008.9
20260506195125 80 287 3.5 13.0 0.00 0.00 0.00 17 1008.9
20260506194623 79 275 5.2 14.8 0.00 0.00 0.00 17 1009.0
20260506194119 80 246 7.8 8.7 0.00 0.00 0.00 18 1009.0
20260506193617 79 264 7.8 17.4 0.00 0.00 0.00 18 1009.2
20260506193114 80 279 5.2 12.2 0.00 0.00 0.00 15 1009.5
20260506192611 79 232 10.4 10.4 0.00 0.00 0.00 16 1009.5
20260506192106 80 287 1.7 10.4 0.00 0.00 0.00 16 1009.5
20260506191603 80 247 12.2 13.0 0.00 0.00 0.00 16 1009.1
20260506191059 78 282 8.7 15.6 0.00 0.00 0.00 16 1009.7
20260506190557 80 248 7.8 16.5 0.00 0.00 0.00 17 1009.1
20260506190053 78 235 8.7 12.2 0.00 0.00 0.00 18 1009.9
20260506185551 79 290 8.7 8.7 0.00 0.00 0.00 15 1009.7
20260506185047 79 280 3.5 12.2 0.00 0.00 0.00 16 1009.7
20260506184544 78 251 5.2 9.6 0.00 0.00 0.00 17 1009.7
20260506184042 79 340 0.9 8.7 0.00 0.00 0.00 16 1009.9
20260506183538 78 272 6.1 13.0 0.00 0.00 0.00 18 1009.9
20260506183034 79 270 0.0 11.3 0.00 0.00 0.00 16 1009.8
20260506182532 78 261 4.3 9.6 0.00 0.00 0.00 18 1010.0
20260506182029 77 259 4.3 13.0 0.00 0.00 0.00 17 1010.1
20260506181527 78 352 1.7 7.8 0.00 0.00 0.00 18 1010.1
20260506181023 78 256 6.1 9.6 0.00 0.00 0.00 18 1010.3
20260506180520 77 260 9.6 9.6 0.00 0.00 0.00 19 1010.0
20260506180016 77 276 6.1 10.4 0.00 0.00 0.00 19 1010.3
20260506175513 77 267 7.8 11.3 0.00 0.00 0.00 19 1010.1
20260506175010 77 239 3.5 17.4 0.00 0.00 0.00 18 1010.3
20260506174508 77 270 1.7 9.6 0.00 0.00 0.00 20 1010.4
20260506174004 77 352 0.0 7.0 0.00 0.00 0.00 22 1010.6
20260506173502 75 190 2.6 4.3 0.00 0.00 0.00 31 1010.4
20260506172958 75 90 0.0 2.6 0.00 0.00 0.00 33 1011.0
20260506172455 74 157 0.9 3.5 0.00 0.00 0.00 35 1010.6
20260506171946 73 223 3.5 6.1 0.00 0.00 0.00 35 1010.9
20260506171444 74 166 0.0 1.7 0.00 0.00 0.00 34 1010.9
20260506170941 72 259 2.6 4.3 0.00 0.00 0.00 36 1011.0
20260506170437 73 249 6.1 6.1 0.00 0.00 0.00 35 1011.1
20260506165931 71 306 0.0 7.0 0.00 0.00 0.00 38 1011.1
20260506165429 71 4 1.7 5.2 0.00 0.00 0.00 38 1011.3
20260506164924 70 324 1.7 5.2 0.00 0.00 0.00 37 1011.2
20260506164421 70 17 3.5 4.3 0.00 0.00 0.00 38 1011.3
20260506163919 69 315 1.7 3.5 0.00 0.00 0.00 39 1011.3
20260506163413 70 1 5.2 5.2 0.00 0.00 0.00 38 1011.2
20260506162908 69 36 5.2 6.1 0.00 0.00 0.00 40 1011.3
20260506162406 70 143 0.0 5.2 0.00 0.00 0.00 40 1011.4
20260506161858 70 74 0.0 3.5 0.00 0.00 0.00 40 1011.4
20260506161356 68 115 1.7 3.5 0.00 0.00 0.00 44 1011.4
20260506160853 69 69 0.0 2.6 0.00 0.00 0.00 44 1011.4
20260506160350 67 23 3.5 5.2 0.00 0.00 0.00 47 1011.5
20260506155848 68 36 2.6 3.5 0.00 0.00 0.00 46 1011.5
20260506155345 68 100 4.3 5.2 0.00 0.00 0.00 44 1011.8
20260506153502 67 0 0.0 1.7 0.00 0.00 0.00 47 1011.8
20260506153000 65 277 0.0 2.6 0.00 0.00 0.00 48 1012.0
20260506152456 66 0 0.0 1.7 0.00 0.00 0.00 48 1011.6
20260506151954 64 17 3.5 6.1 0.00 0.00 0.00 51 1011.9
20260506151452 64 0 1.7 5.2 0.00 0.00 0.00 52 1011.8
20260506150949 63 19 3.5 4.3 0.00 0.00 0.00 52 1011.8
20260506150445 62 7 3.5 6.1 0.00 0.00 0.00 54 1011.9
20260506145942 62 0 2.6 6.1 0.00 0.00 0.00 53 1011.8
20260506145438 62 337 3.5 7.0 0.00 0.00 0.00 55 1011.9
20260506144936 62 30 4.3 6.1 0.00 0.00 0.00 56 1012.1
20260506144432 62 9 5.2 7.0 0.00 0.00 0.00 55 1011.9
20260506143931 62 341 2.6 7.0 0.00 0.00 0.00 56 1012.0
20260506143428 62 26 0.0 6.1 0.00 0.00 0.00 57 1012.1
20260506142926 60 1 5.2 6.1 0.00 0.00 0.00 57 1011.8
20260506142424 60 7 5.2 7.0 0.00 0.00 0.00 58 1012.2
20260506141921 60 12 5.2 7.8 0.00 0.00 0.00 57 1012.0
20260506141419 60 1 5.2 7.0 0.00 0.00 0.00 58 1012.1
20260506140918 59 3 7.0 8.7 0.00 0.00 0.00 58 1012.4
20260506140414 59 355 6.1 7.0 0.00 0.00 0.00 59 1012.3
20260506135911 59 6 4.3 7.8 0.00 0.00 0.00 60 1012.2
20260506135408 59 345 4.3 7.0 0.00 0.00 0.00 59 1012.3
20260506134904 59 3 4.3 6.1 0.00 0.00 0.00 60 1012.1
20260506134400 60 349 1.7 5.2 0.00 0.00 0.00 59 1012.0
20260506133857 59 303 1.7 4.3 0.00 0.00 0.00 61 1012.2
20260506133354 58 345 0.0 7.0 0.00 0.00 0.00 61 1011.6
20260506132850 58 350 2.6 7.0 0.00 0.00 0.00 61 1011.5
20260506132348 58 332 1.7 4.3 0.00 0.00 0.00 62 1011.5
20260506131846 58 2 2.6 4.3 0.00 0.00 0.00 63 1011.8
20260506131342 59 0 1.7 1.7 0.00 0.00 0.00 62 1011.6
20260506130839 59 24 1.7 1.7 0.00 0.00 0.00 64 1011.5
20260506130335 58 131 0.0 1.7 0.00 0.00 0.00 66 1011.3
20260506125833 56 0 0.9 3.5 0.00 0.00 0.00 65 1011.2
20260506125332 57 90 0.0 0.0 0.00 0.00 0.00 65 1011.2
20260506124830 57 77 0.0 1.7 0.00 0.00 0.00 68 1011.3
20260506124326 55 14 0.0 0.9 0.00 0.00 0.00 68 1011.2
20260506123824 54 99 0.0 2.6 0.00 0.00 0.00 70 1011.2
20260506123322 53 3 1.7 3.5 0.00 0.00 0.00 71 1011.3
20260506122819 53 41 0.0 1.7 0.00 0.00 0.00 72 1011.0
20260506122316 53 26 2.6 2.6 0.00 0.00 0.00 71 1011.0
20260506121814 53 8 0.0 0.9 0.00 0.00 0.00 71 1011.1
20260506121311 53 0 1.7 3.5 0.00 0.00 0.00 70 1010.9
20260506120808 54 0 1.7 3.5 0.00 0.00 0.00 70 1010.8
20260506120306 53 15 2.6 3.5 0.00 0.00 0.00 71 1010.7
20260506115803 53 0 1.7 3.5 0.00 0.00 0.00 70 1010.6
20260506115306 53 351 2.6 3.5 0.00 0.00 0.00 70 1010.6
20260506114759 53 6 3.5 3.5 0.00 0.00 0.00 71 1010.4
20260506114256 53 16 3.5 3.5 0.00 0.00 0.00 70 1010.3
20260506113755 55 0 4.3 4.3 0.00 0.00 0.00 68 1010.4
20260506113252 54 35 0.0 1.7 0.00 0.00 0.00 68 1010.7
20260506112748 55 5 1.7 4.3 0.00 0.00 0.00 67 1010.2
20260506112246 55 18 2.6 4.3 0.00 0.00 0.00 65 1010.3
20260506111743 55 9 4.3 7.0 0.00 0.00 0.00 64 1010.1
20260506111241 56 18 4.3 4.3 0.00 0.00 0.00 62 1010.2
20260506110737 57 52 5.2 7.0 0.00 0.00 0.00 60 1010.1
20260506110236 58 37 5.2 8.7 0.00 0.00 0.00 57 1009.9
20260506105732 60 56 7.8 10.4 0.00 0.00 0.00 52 1010.1
20260506105229 59 9 5.2 10.4 0.00 0.00 0.00 51 1009.9
20260506104727 58 353 5.2 6.1 0.00 0.00 0.00 52 1009.7
20260506104224 58 357 1.7 4.3 0.00 0.00 0.00 52 1009.4
20260506103721 57 11 2.6 6.1 0.00 0.00 0.00 55 1009.4
20260506103218 58 344 5.2 6.1 0.00 0.00 0.00 54 1009.0
20260506102716 60 345 0.9 5.2 0.00 0.00 0.00 47 1009.0
20260506102214 61 15 0.9 2.6 0.00 0.00 0.00 45 1009.0
20260506101710 62 18 0.0 1.7 0.00 0.00 0.00 43 1008.7
20260506101207 62 19 2.6 2.6 0.00 0.00 0.00 42 1008.8
20260506100705 63 8 1.7 4.3 0.00 0.00 0.00 41 1009.0
20260506100203 63 29 0.0 2.6 0.00 0.00 0.00 40 1008.7
20260506095701 64 135 1.7 3.5 0.00 0.00 0.00 39 1008.6
20260506095158 64 315 2.6 5.2 0.00 0.00 0.00 40 1008.7
20260506094655 61 16 0.0 2.6 0.00 0.00 0.00 47 1008.5
20260506094153 60 131 1.7 1.7 0.00 0.00 0.00 48 1008.7
20260506093651 59 120 0.0 2.6 0.00 0.00 0.00 53 1008.5
20260506093148 59 106 0.0 2.6 0.00 0.00 0.00 54 1008.4
20260506092646 59 90 0.9 2.6 0.00 0.00 0.00 55 1008.4
20260506092143 59 65 1.7 3.5 0.00 0.00 0.00 56 1008.4
20260506091640 58 33 1.7 2.6 0.00 0.00 0.00 57 1008.2
20260506091137 58 68 2.6 4.3 0.00 0.00 0.00 57 1008.3
20260506090636 59 82 0.9 2.6 0.00 0.00 0.00 57 1008.0
20260506090132 58 103 0.0 1.7 0.00 0.00 0.00 58 1008.0
20260506085629 58 105 0.0 0.9 0.00 0.00 0.00 60 1007.8
20260506085125 59 82 0.0 0.9 0.00 0.00 0.00 57 1007.9
20260506084622 59 90 0.0 0.9 0.00 0.00 0.00 57 1007.7
20260506084118 60 35 0.0 0.0 0.00 0.00 0.00 55 1007.7
20260506083616 61 52 1.7 2.6 0.00 0.00 0.00 55 1007.8
20260506083113 60 23 1.7 1.7 0.00 0.00 0.00 54 1007.4
20260506082610 59 0 0.0 2.6 0.00 0.00 0.00 56 1007.6
20260506082105 60 53 1.7 2.6 0.00 0.00 0.00 56 1007.6
20260506081603 61 294 0.0 3.5 0.00 0.00 0.00 53 1007.7
20260506081101 61 302 2.6 2.6 0.00 0.00 0.00 54 1007.6
20260506080559 62 99 0.0 1.7 0.00 0.00 0.00 50 1007.8
20260506073038 65 325 0.0 2.6 0.00 0.00 0.00 43 1007.5
20260506072536 66 286 0.0 2.6 0.00 0.00 0.00 42 1007.5
20260506072034 66 280 1.7 3.5 0.00 0.00 0.00 41 1007.4
20260506071531 66 292 2.6 3.5 0.00 0.00 0.00 41 1007.6
20260506071028 67 274 2.6 4.3 0.00 0.00 0.00 41 1007.3
20260506070525 67 277 3.5 3.5 0.00 0.00 0.00 42 1007.4
20260506062503 66 185 0.9 2.6 0.00 0.00 0.00 48 1007.5
20260506061959 65 180 0.9 2.6 0.00 0.00 0.00 50 1007.2
20260506061455 65 90 0.0 1.7 0.00 0.00 0.00 51 1007.3
20260506060953 65 139 0.0 2.6 0.00 0.00 0.00 50 1007.3
20260506060451 64 162 0.9 1.7 0.00 0.00 0.00 55 1007.3
20260506050920 66 270 0.0 1.7 0.00 0.00 0.00 51 1007.1
20260506050418 65 294 0.0 1.7 0.00 0.00 0.00 52 1007.3
20260506044908 64 216 1.7 1.7 0.00 0.00 0.00 55 1007.2
20260506044406 64 194 0.0 3.5 0.00 0.00 0.00 52 1007.2
20260506043903 65 208 1.7 3.5 0.00 0.00 0.00 56 1007.2
20260506043400 66 234 0.0 1.7 0.00 0.00 0.00 53 1006.9
20260506042858 66 261 0.0 0.9 0.00 0.00 0.00 52 1006.9
20260506042357 66 8 0.0 0.0 0.00 0.00 0.00 50 1007.1
20260506041855 66 8 0.0 0.0 0.00 0.00 0.00 47 1006.7
20260506041354 66 8 0.0 0.0 0.00 0.00 0.00 48 1006.8
20260506040849 66 8 0.0 0.0 0.00 0.00 0.00 47 1006.7
20260506040347 66 0 0.0 0.0 0.00 0.00 0.00 47 1006.9
20260506035843 67 0 0.0 0.0 0.00 0.00 0.00 47 1006.7
20260506035340 67 12 0.0 1.7 0.00 0.00 0.00 46 1006.6
20260506034837 66 29 0.9 1.7 0.00 0.00 0.00 47 1006.4
20260506034334 65 14 2.6 2.6 0.00 0.00 0.00 50 1006.8
20260506033831 67 131 0.0 0.0 0.00 0.00 0.00 45 1006.6
20260506033328 67 131 0.0 0.0 0.00 0.00 0.00 46 1006.6
20260506032825 67 131 0.0 0.0 0.00 0.00 0.00 46 1006.7
20260506032322 67 117 0.0 0.0 0.00 0.00 0.00 48 1006.5
20260506031819 67 90 0.0 0.9 0.00 0.00 0.00 48 1006.6
20260506031316 68 148 0.0 1.7 0.00 0.00 0.00 49 1006.5
20260506030814 68 74 0.0 0.9 0.00 0.00 0.00 45 1006.7
20260506030312 69 15 0.0 1.7 0.00 0.00 0.00 43 1006.4
20260506025808 70 35 0.0 1.7 0.00 0.00 0.00 42 1006.4
20260506025306 70 270 0.0 1.7 0.00 0.00 0.00 40 1006.2
20260506024802 70 240 0.0 0.0 0.00 0.00 0.00 40 1006.4
20260506024258 71 240 0.0 1.7 0.00 0.00 0.00 39 1006.2
20260506023754 71 311 0.0 1.7 0.00 0.00 0.00 38 1006.3
20260506023252 72 283 0.9 1.7 0.00 0.00 0.00 38 1006.1
20260506022748 72 277 0.0 1.7 0.00 0.00 0.00 37 1006.1
20260506022246 72 248 1.7 2.6 0.00 0.00 0.00 36 1006.1
20260506021744 73 270 0.0 1.7 0.00 0.00 0.00 36 1006.2
20260506021241 73 294 0.0 2.6 0.00 0.00 0.00 35 1006.1
20260506020737 73 263 2.6 3.5 0.00 0.00 0.00 35 1006.2
20260506020235 74 297 2.6 4.3 0.00 0.00 0.00 34 1006.0
20260506015733 74 290 3.5 7.0 0.00 0.00 0.00 34 1006.1
20260506015230 74 256 4.3 5.2 0.00 0.00 0.00 34 1006.2
20260506014727 74 292 2.6 6.1 0.00 0.00 0.00 33 1005.9
20260506014223 75 259 4.3 6.1 0.00 0.00 0.00 33 1006.0
20260506013721 75 307 5.2 7.8 0.00 0.00 0.00 32 1005.9
20260506013218 76 0 0.9 7.8 0.00 0.00 0.00 31 1006.0
20260506012714 75 287 4.3 10.4 0.00 0.00 0.00 32 1005.7
20260506012211 76 281 4.3 7.8 0.00 0.00 0.00 32 1005.9
20260506011708 76 313 2.6 5.2 0.00 0.00 0.00 32 1006.0
20260506011204 76 263 3.5 7.8 0.00 0.00 0.00 31 1005.9
20260506010703 77 259 4.3 9.6 0.00 0.00 0.00 30 1005.9
20260506010200 77 265 3.5 11.3 0.00 0.00 0.00 30 1005.7
20260506005657 77 268 4.3 13.9 0.00 0.00 0.00 29 1005.6
20260506005153 78 290 7.8 12.2 0.00 0.00 0.00 29 1005.7
20260506004649 78 261 3.5 13.9 0.00 0.00 0.00 29 1005.6
20260506004147 79 273 3.5 14.8 0.00 0.00 0.00 29 1005.6
20260506003643 79 261 5.2 10.4 0.00 0.00 0.00 29 1005.6
20260506003139 80 300 9.6 13.9 0.00 0.00 0.00 29 1005.5
20260506002636 79 275 7.0 17.4 0.00 0.00 0.00 29 1005.5
20260506002132 79 307 3.5 15.6 0.00 0.00 0.00 29 1005.7
20260506001627 80 270 9.6 14.8 0.00 0.00 0.00 28 1005.5
20260506001125 79 292 4.3 15.6 0.00 0.00 0.00 29 1005.6
20260506000622 79 292 4.3 14.8 0.00 0.00 0.00 28 1005.6
20260506000120 79 276 7.8 13.0 0.00 0.00 0.00 28 1005.9
20260505235618 81 288 7.0 10.4 0.00 0.00 0.00 28 1005.4
20260505235114 80 240 19.1 19.1 0.00 0.00 0.00 27 1005.5
20260505234611 81 243 9.6 13.9 0.00 0.00 0.00 27 1005.5
20260505234108 80 278 5.2 14.8 0.00 0.00 0.00 28 1005.6
20260505233606 81 246 4.3 9.6 0.00 0.00 0.00 28 1005.7